owner,sensor,date,latitude,longitude,vertical_datum,mass_concentration_of_oxygen_in_sea_water,qcFlag 
DISL,ioos:station:DISL:KATA:1,2012-08-01T00:00:00Z,30.2583,-88.2131,3.718,5.16,1111122 
DISL,ioos:station:DISL:KATA:1,2012-08-01T00:30:00Z,30.2583,-88.2131,3.749,4.67,1111122 
DISL,ioos:station:DISL:KATA:1,2012-08-01T01:00:00Z,30.2583,-88.2131,3.777,4.69,1111122 
DISL,ioos:station:DISL:KATA:1,2012-08-01T01:30:00Z,30.2583,-88.2131,3.798,4.73,1111122 
DISL,ioos:station:DISL:KATA:1,2012-08-01T02:00:00Z,30.2583,-88.2131,3.821,4.87,1111122 
DISL,ioos:station:DISL:KATA:1,2012-08-01T02:30:00Z,30.2583,-88.2131,3.833,5.08,1111122 
DISL,ioos:station:DISL:KATA:1,2012-08-01T03:00:00Z,30.2583,-88.2131,3.84,5.14,1111122 
DISL,ioos:station:DISL:KATA:1,2012-08-01T03:30:00Z,30.2583,-88.2131,3.857,4.99,1111122 
DISL,ioos:station:DISL:KATA:1,2012-08-01T04:00:00Z,30.2583,-88.2131,3.86,5.07,1111122 
DISL,ioos:station:DISL:KATA:1,2012-08-01T04:30:00Z,30.2583,-88.2131,3.883,5.0,1111122 
DISL,ioos:station:DISL:KATA:1,2012-08-01T05:00:00Z,30.2583,-88.2131,3.91,4.86,1111122 
DISL,ioos:station:DISL:KATA:1,2012-08-01T05:30:00Z,30.2583,-88.2131,3.951,5.0,1111122 
DISL,ioos:station:DISL:KATA:1,2012-08-01T06:00:00Z,30.2583,-88.2131,3.982,5.0,1111122 
DISL,ioos:station:DISL:KATA:1,2012-08-01T06:30:00Z,30.2583,-88.2131,3.998,4.87,1111122 
DISL,ioos:station:DISL:KATA:1,2012-08-01T07:00:00Z,30.2583,-88.2131,4.002,4.94,1111122 
DISL,ioos:station:DISL:KATA:1,2012-08-01T07:30:00Z,30.2583,-88.2131,4.016,4.69,1111122 
DISL,ioos:station:DISL:KATA:1,2012-08-01T08:00:00Z,30.2583,-88.2131,3.997,4.45,1111122 
DISL,ioos:station:DISL:KATA:1,2012-08-01T08:30:00Z,30.2583,-88.2131,4.005,4.5,1111122 
DISL,ioos:station:DISL:KATA:1,2012-08-01T09:00:00Z,30.2583,-88.2131,4.02,4.69,1111122 
DISL,ioos:station:DISL:KATA:1,2012-08-01T09:30:00Z,30.2583,-88.2131,4.053,4.75,1111122 
DISL,ioos:station:DISL:KATA:1,2012-08-01T10:00:00Z,30.2583,-88.2131,4.098,4.79,1111122 
DISL,ioos:station:DISL:KATA:1,2012-08-01T10:30:00Z,30.2583,-88.2131,4.14,4.68,1111122 
DISL,ioos:station:DISL:KATA:1,2012-08-01T11:00:00Z,30.2583,-88.2131,4.173,4.67,1111122 
DISL,ioos:station:DISL:KATA:1,2012-08-01T11:30:00Z,30.2583,-88.2131,4.198,4.58,1111122 
DISL,ioos:station:DISL:KATA:1,2012-08-01T12:00:00Z,30.2583,-88.2131,4.235,4.67,1111122 
DISL,ioos:station:DISL:KATA:1,2012-08-01T12:30:00Z,30.2583,-88.2131,4.255,5.17,1111122 
DISL,ioos:station:DISL:KATA:1,2012-08-01T13:00:00Z,30.2583,-88.2131,4.29,5.15,1111122 
DISL,ioos:station:DISL:KATA:1,2012-08-01T13:30:00Z,30.2583,-88.2131,4.307,5.17,1111122 
DISL,ioos:station:DISL:KATA:1,2012-08-01T14:00:00Z,30.2583,-88.2131,4.313,4.99,1111122 
DISL,ioos:station:DISL:KATA:1,2012-08-01T14:30:00Z,30.2583,-88.2131,4.328,4.96,1111122 
DISL,ioos:station:DISL:KATA:1,2012-08-01T15:00:00Z,30.2583,-88.2131,4.323,4.83,1111122 
DISL,ioos:station:DISL:KATA:1,2012-08-01T15:30:00Z,30.2583,-88.2131,4.308,4.77,1111122 
DISL,ioos:station:DISL:KATA:1,2012-08-01T16:00:00Z,30.2583,-88.2131,4.27,4.68,1111122 
DISL,ioos:station:DISL:KATA:1,2012-08-01T16:30:00Z,30.2583,-88.2131,4.246,4.86,1111122 
DISL,ioos:station:DISL:KATA:1,2012-08-01T17:00:00Z,30.2583,-88.2131,4.247,5.02,1111122 
DISL,ioos:station:DISL:KATA:1,2012-08-01T17:30:00Z,30.2583,-88.2131,4.256,5.14,1111122 
DISL,ioos:station:DISL:KATA:1,2012-08-01T18:00:00Z,30.2583,-88.2131,4.276,5.05,1111122 
DISL,ioos:station:DISL:KATA:1,2012-08-01T18:30:00Z,30.2583,-88.2131,4.245,4.99,1111122 
DISL,ioos:station:DISL:KATA:1,2012-08-01T19:00:00Z,30.2583,-88.2131,4.21,5.09,1111122 
DISL,ioos:station:DISL:KATA:1,2012-08-01T19:30:00Z,30.2583,-88.2131,4.172,5.07,1111122 
DISL,ioos:station:DISL:KATA:1,2012-08-01T20:00:00Z,30.2583,-88.2131,4.12,5.14,1111122 
DISL,ioos:station:DISL:KATA:1,2012-08-01T20:30:00Z,30.2583,-88.2131,4.059,5.1,1111122 
DISL,ioos:station:DISL:KATA:1,2012-08-01T21:00:00Z,30.2583,-88.2131,4.003,5.31,1111122 
DISL,ioos:station:DISL:KATA:1,2012-08-01T21:30:00Z,30.2583,-88.2131,3.955,5.3,1111122 
DISL,ioos:station:DISL:KATA:1,2012-08-01T22:00:00Z,30.2583,-88.2131,3.911,5.35,1111122 
DISL,ioos:station:DISL:KATA:1,2012-08-01T22:30:00Z,30.2583,-88.2131,3.877,5.54,1111122 
DISL,ioos:station:DISL:KATA:1,2012-08-01T23:00:00Z,30.2583,-88.2131,3.833,5.76,1111122 
DISL,ioos:station:DISL:KATA:1,2012-08-01T23:30:00Z,30.2583,-88.2131,3.828,5.81,1111122 
DISL,ioos:station:DISL:KATA:1,2012-08-02T00:00:00Z,30.2583,-88.2131,3.781,5.86,1111122 
DISL,ioos:station:DISL:KATA:1,2012-08-02T00:30:00Z,30.2583,-88.2131,3.742,5.81,1111122 
DISL,ioos:station:DISL:KATA:1,2012-08-02T01:00:00Z,30.2583,-88.2131,3.727,5.78,1111122 
DISL,ioos:station:DISL:KATA:1,2012-08-02T01:30:00Z,30.2583,-88.2131,3.713,5.7,1111122 
DISL,ioos:station:DISL:KATA:1,2012-08-02T02:00:00Z,30.2583,-88.2131,3.725,5.31,1111122 
DISL,ioos:station:DISL:KATA:1,2012-08-02T02:30:00Z,30.2583,-88.2131,3.727,5.3,1111122 
DISL,ioos:station:DISL:KATA:1,2012-08-02T03:00:00Z,30.2583,-88.2131,3.737,5.21,1111122 
DISL,ioos:station:DISL:KATA:1,2012-08-02T03:30:00Z,30.2583,-88.2131,3.759,4.98,1111122 
DISL,ioos:station:DISL:KATA:1,2012-08-02T04:00:00Z,30.2583,-88.2131,3.773,4.96,1111122 
DISL,ioos:station:DISL:KATA:1,2012-08-02T04:30:00Z,30.2583,-88.2131,3.805,4.59,1111122 
DISL,ioos:station:DISL:KATA:1,2012-08-02T05:00:00Z,30.2583,-88.2131,3.841,4.62,1111122 
DISL,ioos:station:DISL:KATA:1,2012-08-02T05:30:00Z,30.2583,-88.2131,3.884,4.74,1111122 
DISL,ioos:station:DISL:KATA:1,2012-08-02T06:00:00Z,30.2583,-88.2131,3.914,5.01,1111122 
DISL,ioos:station:DISL:KATA:1,2012-08-02T06:30:00Z,30.2583,-88.2131,3.936,4.79,1111122 
DISL,ioos:station:DISL:KATA:1,2012-08-02T07:00:00Z,30.2583,-88.2131,3.955,4.91,1111122 
DISL,ioos:station:DISL:KATA:1,2012-08-02T07:30:00Z,30.2583,-88.2131,3.962,4.88,1111122 
DISL,ioos:station:DISL:KATA:1,2012-08-02T08:00:00Z,30.2583,-88.2131,3.975,4.28,1111122 
DISL,ioos:station:DISL:KATA:1,2012-08-02T08:30:00Z,30.2583,-88.2131,3.98,4.47,1111122 
DISL,ioos:station:DISL:KATA:1,2012-08-02T09:00:00Z,30.2583,-88.2131,3.989,4.71,1111122 
DISL,ioos:station:DISL:KATA:1,2012-08-02T09:30:00Z,30.2583,-88.2131,3.993,4.53,1111122 
DISL,ioos:station:DISL:KATA:1,2012-08-02T10:00:00Z,30.2583,-88.2131,4.004,4.46,1111122 
DISL,ioos:station:DISL:KATA:1,2012-08-02T10:30:00Z,30.2583,-88.2131,4.027,4.58,1111122 
DISL,ioos:station:DISL:KATA:1,2012-08-02T11:00:00Z,30.2583,-88.2131,4.056,4.83,1111122 
DISL,ioos:station:DISL:KATA:1,2012-08-02T11:30:00Z,30.2583,-88.2131,4.099,5.03,1111122 
DISL,ioos:station:DISL:KATA:1,2012-08-02T12:00:00Z,30.2583,-88.2131,4.134,4.9,1111122 
DISL,ioos:station:DISL:KATA:1,2012-08-02T12:30:00Z,30.2583,-88.2131,4.168,5.03,1111122 
DISL,ioos:station:DISL:KATA:1,2012-08-02T13:00:00Z,30.2583,-88.2131,4.208,4.96,1111122 
DISL,ioos:station:DISL:KATA:1,2012-08-02T13:30:00Z,30.2583,-88.2131,4.22,4.89,1111122 
DISL,ioos:station:DISL:KATA:1,2012-08-02T14:00:00Z,30.2583,-88.2131,4.238,4.91,1111122 
DISL,ioos:station:DISL:KATA:1,2012-08-02T14:30:00Z,30.2583,-88.2131,4.257,4.88,1111122 
DISL,ioos:station:DISL:KATA:1,2012-08-02T15:00:00Z,30.2583,-88.2131,4.267,4.56,1111122 
DISL,ioos:station:DISL:KATA:1,2012-08-02T15:30:00Z,30.2583,-88.2131,4.271,4.77,1111122 
DISL,ioos:station:DISL:KATA:1,2012-08-02T16:00:00Z,30.2583,-88.2131,4.253,4.94,1111122 
DISL,ioos:station:DISL:KATA:1,2012-08-02T16:30:00Z,30.2583,-88.2131,4.232,4.73,1111122 
DISL,ioos:station:DISL:KATA:1,2012-08-02T17:00:00Z,30.2583,-88.2131,4.214,4.74,1111122 
DISL,ioos:station:DISL:KATA:1,2012-08-02T17:30:00Z,30.2583,-88.2131,4.203,4.86,1111122 
DISL,ioos:station:DISL:KATA:1,2012-08-02T18:00:00Z,30.2583,-88.2131,4.202,5.03,1111122 
DISL,ioos:station:DISL:KATA:1,2012-08-02T18:30:00Z,30.2583,-88.2131,4.198,4.74,1111122 
DISL,ioos:station:DISL:KATA:1,2012-08-02T19:00:00Z,30.2583,-88.2131,4.172,4.8,1111122 
DISL,ioos:station:DISL:KATA:1,2012-08-02T19:30:00Z,30.2583,-88.2131,4.149,5.06,1111122 
DISL,ioos:station:DISL:KATA:1,2012-08-02T20:00:00Z,30.2583,-88.2131,4.114,5.06,1111122 
DISL,ioos:station:DISL:KATA:1,2012-08-02T20:30:00Z,30.2583,-88.2131,4.093,5.12,1111122 
DISL,ioos:station:DISL:KATA:1,2012-08-02T21:00:00Z,30.2583,-88.2131,4.016,5.64,1111122 
DISL,ioos:station:DISL:KATA:1,2012-08-02T21:30:00Z,30.2583,-88.2131,3.946,5.29,1111122 
DISL,ioos:station:DISL:KATA:1,2012-08-02T22:00:00Z,30.2583,-88.2131,3.917,5.47,1111122 
DISL,ioos:station:DISL:KATA:1,2012-08-02T22:30:00Z,30.2583,-88.2131,3.901,5.44,1111122 
DISL,ioos:station:DISL:KATA:1,2012-08-02T23:00:00Z,30.2583,-88.2131,3.838,5.72,1111122 
DISL,ioos:station:DISL:KATA:1,2012-08-02T23:30:00Z,30.2583,-88.2131,3.763,5.61,1111122 
DISL,ioos:station:DISL:KATA:1,2012-08-03T00:00:00Z,30.2583,-88.2131,3.746,5.12,1111122 
DISL,ioos:station:DISL:KATA:1,2012-08-03T00:30:00Z,30.2583,-88.2131,3.758,5.31,1111122 
DISL,ioos:station:DISL:KATA:1,2012-08-03T01:00:00Z,30.2583,-88.2131,3.765,4.88,1111122 
DISL,ioos:station:DISL:KATA:1,2012-08-03T01:30:00Z,30.2583,-88.2131,3.817,4.5,1111122 
DISL,ioos:station:DISL:KATA:1,2012-08-03T02:00:00Z,30.2583,-88.2131,3.822,4.66,1111122 
DISL,ioos:station:DISL:KATA:1,2012-08-03T02:30:00Z,30.2583,-88.2131,3.839,4.71,1111122 
DISL,ioos:station:DISL:KATA:1,2012-08-03T03:00:00Z,30.2583,-88.2131,3.852,4.4,1111122 
DISL,ioos:station:DISL:KATA:1,2012-08-03T03:30:00Z,30.2583,-88.2131,3.853,4.67,1111122 
DISL,ioos:station:DISL:KATA:1,2012-08-03T04:00:00Z,30.2583,-88.2131,3.862,4.5,1111122 
DISL,ioos:station:DISL:KATA:1,2012-08-03T04:30:00Z,30.2583,-88.2131,3.851,4.71,1111122 
DISL,ioos:station:DISL:KATA:1,2012-08-03T05:00:00Z,30.2583,-88.2131,3.866,4.81,1111122 
DISL,ioos:station:DISL:KATA:1,2012-08-03T05:30:00Z,30.2583,-88.2131,3.889,4.74,1111122 
DISL,ioos:station:DISL:KATA:1,2012-08-03T06:00:00Z,30.2583,-88.2131,3.906,4.73,1111122 
DISL,ioos:station:DISL:KATA:1,2012-08-03T06:30:00Z,30.2583,-88.2131,3.925,4.73,1111122 
DISL,ioos:station:DISL:KATA:1,2012-08-03T07:00:00Z,30.2583,-88.2131,3.954,4.46,1111122 
DISL,ioos:station:DISL:KATA:1,2012-08-03T07:30:00Z,30.2583,-88.2131,3.988,4.13,1111122 
DISL,ioos:station:DISL:KATA:1,2012-08-03T08:00:00Z,30.2583,-88.2131,4.011,4.06,1111122 
DISL,ioos:station:DISL:KATA:1,2012-08-03T08:30:00Z,30.2583,-88.2131,4.031,4.15,1111122 
DISL,ioos:station:DISL:KATA:1,2012-08-03T09:00:00Z,30.2583,-88.2131,4.042,4.12,1111122 
DISL,ioos:station:DISL:KATA:1,2012-08-03T09:30:00Z,30.2583,-88.2131,4.031,4.18,1111122 
DISL,ioos:station:DISL:KATA:1,2012-08-03T10:00:00Z,30.2583,-88.2131,4.045,4.39,1111122 
DISL,ioos:station:DISL:KATA:1,2012-08-03T10:30:00Z,30.2583,-88.2131,4.041,4.39,1111122 
DISL,ioos:station:DISL:KATA:1,2012-08-03T11:00:00Z,30.2583,-88.2131,4.053,4.24,1111122 
DISL,ioos:station:DISL:KATA:1,2012-08-03T11:30:00Z,30.2583,-88.2131,4.069,4.18,1111122 
DISL,ioos:station:DISL:KATA:1,2012-08-03T12:00:00Z,30.2583,-88.2131,4.092,4.23,1111122 
DISL,ioos:station:DISL:KATA:1,2012-08-03T12:30:00Z,30.2583,-88.2131,4.139,4.17,1111122 
DISL,ioos:station:DISL:KATA:1,2012-08-03T13:00:00Z,30.2583,-88.2131,4.15,4.21,1111122 
DISL,ioos:station:DISL:KATA:1,2012-08-03T13:30:00Z,30.2583,-88.2131,4.148,3.91,1111122 
DISL,ioos:station:DISL:KATA:1,2012-08-03T14:00:00Z,30.2583,-88.2131,4.162,4.12,1111122 
DISL,ioos:station:DISL:KATA:1,2012-08-03T14:30:00Z,30.2583,-88.2131,4.181,4.25,1111122 
DISL,ioos:station:DISL:KATA:1,2012-08-03T15:00:00Z,30.2583,-88.2131,4.221,4.23,1111122 
DISL,ioos:station:DISL:KATA:1,2012-08-03T15:30:00Z,30.2583,-88.2131,4.231,3.94,1111122 
DISL,ioos:station:DISL:KATA:1,2012-08-03T16:00:00Z,30.2583,-88.2131,4.223,4.15,1111122 
DISL,ioos:station:DISL:KATA:1,2012-08-03T16:30:00Z,30.2583,-88.2131,4.225,4.35,1111122 
DISL,ioos:station:DISL:KATA:1,2012-08-03T17:00:00Z,30.2583,-88.2131,4.195,4.03,1111122 
DISL,ioos:station:DISL:KATA:1,2012-08-03T17:30:00Z,30.2583,-88.2131,4.178,3.74,1111122 
DISL,ioos:station:DISL:KATA:1,2012-08-03T18:00:00Z,30.2583,-88.2131,4.165,3.99,1111122 
DISL,ioos:station:DISL:KATA:1,2012-08-03T18:30:00Z,30.2583,-88.2131,4.178,3.95,1111122 
DISL,ioos:station:DISL:KATA:1,2012-08-03T19:00:00Z,30.2583,-88.2131,4.165,3.88,1111122 
DISL,ioos:station:DISL:KATA:1,2012-08-03T19:30:00Z,30.2583,-88.2131,4.163,3.87,1111122 
DISL,ioos:station:DISL:KATA:1,2012-08-03T20:00:00Z,30.2583,-88.2131,4.137,4.0,1111122 
DISL,ioos:station:DISL:KATA:1,2012-08-03T20:30:00Z,30.2583,-88.2131,4.087,4.55,1111122 
DISL,ioos:station:DISL:KATA:1,2012-08-03T21:00:00Z,30.2583,-88.2131,4.051,4.4,1111122 
DISL,ioos:station:DISL:KATA:1,2012-08-03T21:30:00Z,30.2583,-88.2131,4.008,4.05,1111122 
DISL,ioos:station:DISL:KATA:1,2012-08-03T22:00:00Z,30.2583,-88.2131,3.966,4.24,1111122 
DISL,ioos:station:DISL:KATA:1,2012-08-03T22:30:00Z,30.2583,-88.2131,3.936,4.35,1111122 
DISL,ioos:station:DISL:KATA:1,2012-08-03T23:00:00Z,30.2583,-88.2131,3.917,4.17,1111122 
DISL,ioos:station:DISL:KATA:1,2012-08-03T23:30:00Z,30.2583,-88.2131,3.907,3.92,1111122 
DISL,ioos:station:DISL:KATA:1,2012-08-04T00:00:00Z,30.2583,-88.2131,3.9,4.08,1111122 
DISL,ioos:station:DISL:KATA:1,2012-08-04T00:30:00Z,30.2583,-88.2131,3.883,3.68,1111122 
DISL,ioos:station:DISL:KATA:1,2012-08-04T01:00:00Z,30.2583,-88.2131,3.897,3.91,1111122 
DISL,ioos:station:DISL:KATA:1,2012-08-04T01:30:00Z,30.2583,-88.2131,3.883,4.79,1111122 
DISL,ioos:station:DISL:KATA:1,2012-08-04T02:00:00Z,30.2583,-88.2131,3.86,5.14,1111122 
DISL,ioos:station:DISL:KATA:1,2012-08-04T02:30:00Z,30.2583,-88.2131,3.844,4.61,1111122 
DISL,ioos:station:DISL:KATA:1,2012-08-04T03:00:00Z,30.2583,-88.2131,3.848,4.74,1111122 
DISL,ioos:station:DISL:KATA:1,2012-08-04T03:30:00Z,30.2583,-88.2131,3.879,4.41,1111122 
DISL,ioos:station:DISL:KATA:1,2012-08-04T04:00:00Z,30.2583,-88.2131,3.89,4.61,1111122 
DISL,ioos:station:DISL:KATA:1,2012-08-04T04:30:00Z,30.2583,-88.2131,3.913,4.7,1111122 
DISL,ioos:station:DISL:KATA:1,2012-08-04T05:00:00Z,30.2583,-88.2131,3.946,4.5,1111122 
DISL,ioos:station:DISL:KATA:1,2012-08-04T05:30:00Z,30.2583,-88.2131,3.953,4.75,1111122 
DISL,ioos:station:DISL:KATA:1,2012-08-04T06:00:00Z,30.2583,-88.2131,3.981,4.89,1111122 
DISL,ioos:station:DISL:KATA:1,2012-08-04T06:30:00Z,30.2583,-88.2131,4.002,4.62,1111122 
DISL,ioos:station:DISL:KATA:1,2012-08-04T07:00:00Z,30.2583,-88.2131,4.013,4.59,1111122 
DISL,ioos:station:DISL:KATA:1,2012-08-04T07:30:00Z,30.2583,-88.2131,4.028,4.56,1111122 
DISL,ioos:station:DISL:KATA:1,2012-08-04T08:00:00Z,30.2583,-88.2131,4.047,4.58,1111122 
DISL,ioos:station:DISL:KATA:1,2012-08-04T08:30:00Z,30.2583,-88.2131,4.063,4.18,1111122 
DISL,ioos:station:DISL:KATA:1,2012-08-04T09:00:00Z,30.2583,-88.2131,4.072,4.14,1111122 
DISL,ioos:station:DISL:KATA:1,2012-08-04T09:30:00Z,30.2583,-88.2131,4.08,3.47,1111122 
DISL,ioos:station:DISL:KATA:1,2012-08-04T10:00:00Z,30.2583,-88.2131,4.079,3.17,1111122 
DISL,ioos:station:DISL:KATA:1,2012-08-04T10:30:00Z,30.2583,-88.2131,4.063,2.98,1111122 
DISL,ioos:station:DISL:KATA:1,2012-08-04T11:00:00Z,30.2583,-88.2131,4.048,2.68,1111122 
DISL,ioos:station:DISL:KATA:1,2012-08-04T11:30:00Z,30.2583,-88.2131,4.057,2.76,1111122 
DISL,ioos:station:DISL:KATA:1,2012-08-04T12:00:00Z,30.2583,-88.2131,4.06,2.42,1111122 
DISL,ioos:station:DISL:KATA:1,2012-08-04T12:30:00Z,30.2583,-88.2131,4.048,2.96,1111122 
DISL,ioos:station:DISL:KATA:1,2012-08-04T13:00:00Z,30.2583,-88.2131,4.048,2.96,1111122 
DISL,ioos:station:DISL:KATA:1,2012-08-04T13:30:00Z,30.2583,-88.2131,4.048,2.96,1111122 
DISL,ioos:station:DISL:KATA:1,2012-08-04T14:00:00Z,30.2583,-88.2131,4.048,2.96,1111122 
DISL,ioos:station:DISL:KATA:1,2012-08-04T14:30:00Z,30.2583,-88.2131,4.048,2.96,1111122 
DISL,ioos:station:DISL:KATA:1,2012-08-04T15:00:00Z,30.2583,-88.2131,4.048,2.96,1111122 
DISL,ioos:station:DISL:KATA:1,2012-08-04T15:30:00Z,30.2583,-88.2131,4.048,2.96,1111122 
DISL,ioos:station:DISL:KATA:1,2012-08-04T16:00:00Z,30.2583,-88.2131,4.048,2.96,1111122 
DISL,ioos:station:DISL:KATA:1,2012-08-04T16:30:00Z,30.2583,-88.2131,4.048,2.96,1111122 
DISL,ioos:station:DISL:KATA:1,2012-08-04T17:00:00Z,30.2583,-88.2131,4.048,2.96,1111122 
DISL,ioos:station:DISL:KATA:1,2012-08-04T17:30:00Z,30.2583,-88.2131,4.048,2.96,1111122 
DISL,ioos:station:DISL:KATA:1,2012-08-04T18:00:00Z,30.2583,-88.2131,4.048,2.96,1111122 
DISL,ioos:station:DISL:KATA:1,2012-08-04T18:30:00Z,30.2583,-88.2131,4.048,2.96,1111122 
DISL,ioos:station:DISL:KATA:1,2012-08-04T19:00:00Z,30.2583,-88.2131,4.048,2.96,1111122 
DISL,ioos:station:DISL:KATA:1,2012-08-04T19:30:00Z,30.2583,-88.2131,4.048,2.96,1111122 
DISL,ioos:station:DISL:KATA:1,2012-08-04T20:00:00Z,30.2583,-88.2131,4.048,2.96,1111122 
DISL,ioos:station:DISL:KATA:1,2012-08-04T20:30:00Z,30.2583,-88.2131,4.048,2.96,1111122 
DISL,ioos:station:DISL:KATA:1,2012-08-04T21:00:00Z,30.2583,-88.2131,4.048,2.96,1111122 
DISL,ioos:station:DISL:KATA:1,2012-08-04T21:30:00Z,30.2583,-88.2131,4.048,2.96,1111122 
DISL,ioos:station:DISL:KATA:1,2012-08-04T22:00:00Z,30.2583,-88.2131,4.048,2.96,1111122 
DISL,ioos:station:DISL:KATA:1,2012-08-04T22:30:00Z,30.2583,-88.2131,4.048,2.96,1111122 
DISL,ioos:station:DISL:KATA:1,2012-08-04T23:00:00Z,30.2583,-88.2131,4.048,2.96,1111122 
DISL,ioos:station:DISL:KATA:1,2012-08-04T23:30:00Z,30.2583,-88.2131,4.048,2.96,1111122 
DISL,ioos:station:DISL:KATA:1,2012-08-05T00:00:00Z,30.2583,-88.2131,4.048,2.96,1111122 
DISL,ioos:station:DISL:KATA:1,2012-08-05T00:30:00Z,30.2583,-88.2131,4.048,2.96,1111122 
DISL,ioos:station:DISL:KATA:1,2012-08-05T01:00:00Z,30.2583,-88.2131,4.048,2.96,1111122 
DISL,ioos:station:DISL:KATA:1,2012-08-05T01:30:00Z,30.2583,-88.2131,4.048,2.96,1111122 
DISL,ioos:station:DISL:KATA:1,2012-08-05T02:00:00Z,30.2583,-88.2131,4.048,2.96,1111122 
DISL,ioos:station:DISL:KATA:1,2012-08-05T02:30:00Z,30.2583,-88.2131,4.048,2.96,1111122 
DISL,ioos:station:DISL:KATA:1,2012-08-05T03:00:00Z,30.2583,-88.2131,4.048,2.96,1111122 
DISL,ioos:station:DISL:KATA:1,2012-08-05T03:30:00Z,30.2583,-88.2131,4.048,2.96,1111122 
DISL,ioos:station:DISL:KATA:1,2012-08-05T04:00:00Z,30.2583,-88.2131,4.048,2.96,1111122 
DISL,ioos:station:DISL:KATA:1,2012-08-05T04:30:00Z,30.2583,-88.2131,4.048,2.96,1111122 
DISL,ioos:station:DISL:KATA:1,2012-08-05T05:00:00Z,30.2583,-88.2131,4.048,2.96,1111122 
DISL,ioos:station:DISL:KATA:1,2012-08-05T05:30:00Z,30.2583,-88.2131,4.048,2.96,1111122 
DISL,ioos:station:DISL:KATA:1,2012-08-05T06:00:00Z,30.2583,-88.2131,4.048,2.96,1111122 
DISL,ioos:station:DISL:KATA:1,2012-08-05T06:30:00Z,30.2583,-88.2131,4.048,2.96,1111122 
DISL,ioos:station:DISL:KATA:1,2012-08-05T07:00:00Z,30.2583,-88.2131,4.048,2.96,1111122 
DISL,ioos:station:DISL:KATA:1,2012-08-05T07:30:00Z,30.2583,-88.2131,4.048,2.96,1111122 
DISL,ioos:station:DISL:KATA:1,2012-08-05T08:00:00Z,30.2583,-88.2131,4.048,2.96,1111122 
DISL,ioos:station:DISL:KATA:1,2012-08-05T08:30:00Z,30.2583,-88.2131,4.048,2.96,1111122 
DISL,ioos:station:DISL:KATA:1,2012-08-05T09:00:00Z,30.2583,-88.2131,4.048,2.96,1111122 
DISL,ioos:station:DISL:KATA:1,2012-08-05T09:30:00Z,30.2583,-88.2131,4.048,2.96,1111122 
DISL,ioos:station:DISL:KATA:1,2012-08-05T10:00:00Z,30.2583,-88.2131,4.048,2.96,1111122 
DISL,ioos:station:DISL:KATA:1,2012-08-05T10:30:00Z,30.2583,-88.2131,4.048,2.96,1111122 
DISL,ioos:station:DISL:KATA:1,2012-08-05T11:00:00Z,30.2583,-88.2131,4.048,2.96,1111122 
DISL,ioos:station:DISL:KATA:1,2012-08-05T11:30:00Z,30.2583,-88.2131,4.048,2.96,1111122 
DISL,ioos:station:DISL:KATA:1,2012-08-05T12:00:00Z,30.2583,-88.2131,4.048,2.96,1111122 
DISL,ioos:station:DISL:KATA:1,2012-08-05T12:30:00Z,30.2583,-88.2131,4.048,2.96,1111122 
DISL,ioos:station:DISL:KATA:1,2012-08-05T13:00:00Z,30.2583,-88.2131,4.048,2.96,1111122 
DISL,ioos:station:DISL:KATA:1,2012-08-05T13:30:00Z,30.2583,-88.2131,4.048,2.96,1111122 
DISL,ioos:station:DISL:KATA:1,2012-08-05T14:00:00Z,30.2583,-88.2131,4.048,2.96,1111122 
DISL,ioos:station:DISL:KATA:1,2012-08-05T14:30:00Z,30.2583,-88.2131,4.048,2.96,1111122 
DISL,ioos:station:DISL:KATA:1,2012-08-05T15:00:00Z,30.2583,-88.2131,4.048,2.96,1111122 
DISL,ioos:station:DISL:KATA:1,2012-08-05T15:30:00Z,30.2583,-88.2131,4.048,2.96,1111122 
DISL,ioos:station:DISL:KATA:1,2012-08-05T16:00:00Z,30.2583,-88.2131,4.048,2.96,1111122 
DISL,ioos:station:DISL:KATA:1,2012-08-05T16:30:00Z,30.2583,-88.2131,4.048,2.96,1111122 
DISL,ioos:station:DISL:KATA:1,2012-08-05T17:00:00Z,30.2583,-88.2131,4.048,2.96,1111122 
DISL,ioos:station:DISL:KATA:1,2012-08-05T17:30:00Z,30.2583,-88.2131,4.048,2.96,1111122 
DISL,ioos:station:DISL:KATA:1,2012-08-05T18:00:00Z,30.2583,-88.2131,4.048,2.96,1111122 
DISL,ioos:station:DISL:KATA:1,2012-08-05T18:30:00Z,30.2583,-88.2131,4.048,2.96,1111122 
DISL,ioos:station:DISL:KATA:1,2012-08-05T19:00:00Z,30.2583,-88.2131,4.048,2.96,1111122 
DISL,ioos:station:DISL:KATA:1,2012-08-05T19:30:00Z,30.2583,-88.2131,4.048,2.96,1111122 
DISL,ioos:station:DISL:KATA:1,2012-08-05T20:00:00Z,30.2583,-88.2131,4.048,2.96,1111122 
DISL,ioos:station:DISL:KATA:1,2012-08-05T20:30:00Z,30.2583,-88.2131,4.048,2.96,1111122 
DISL,ioos:station:DISL:KATA:1,2012-08-05T21:00:00Z,30.2583,-88.2131,4.048,2.96,1111122 
DISL,ioos:station:DISL:KATA:1,2012-08-05T21:30:00Z,30.2583,-88.2131,4.048,2.96,1111122 
DISL,ioos:station:DISL:KATA:1,2012-08-05T22:00:00Z,30.2583,-88.2131,4.048,2.96,1111122 
DISL,ioos:station:DISL:KATA:1,2012-08-05T22:30:00Z,30.2583,-88.2131,4.048,2.96,1111122 
DISL,ioos:station:DISL:KATA:1,2012-08-05T23:00:00Z,30.2583,-88.2131,4.048,2.96,1111122 
DISL,ioos:station:DISL:KATA:1,2012-08-05T23:30:00Z,30.2583,-88.2131,4.048,2.96,1111122 
DISL,ioos:station:DISL:KATA:1,2012-08-06T00:00:00Z,30.2583,-88.2131,4.048,2.96,1111122 
DISL,ioos:station:DISL:KATA:1,2012-08-06T00:30:00Z,30.2583,-88.2131,4.048,2.96,1111122 
DISL,ioos:station:DISL:KATA:1,2012-08-06T01:00:00Z,30.2583,-88.2131,4.048,2.96,1111122 
DISL,ioos:station:DISL:KATA:1,2012-08-06T01:30:00Z,30.2583,-88.2131,4.048,2.96,1111122 
DISL,ioos:station:DISL:KATA:1,2012-08-06T02:00:00Z,30.2583,-88.2131,4.048,2.96,1111122 
DISL,ioos:station:DISL:KATA:1,2012-08-06T02:30:00Z,30.2583,-88.2131,4.048,2.96,1111122 
DISL,ioos:station:DISL:KATA:1,2012-08-06T03:00:00Z,30.2583,-88.2131,4.048,2.96,1111122 
DISL,ioos:station:DISL:KATA:1,2012-08-06T03:30:00Z,30.2583,-88.2131,4.048,2.96,1111122 
DISL,ioos:station:DISL:KATA:1,2012-08-06T04:00:00Z,30.2583,-88.2131,4.048,2.96,1111122 
DISL,ioos:station:DISL:KATA:1,2012-08-06T04:30:00Z,30.2583,-88.2131,4.048,2.96,1111122 
DISL,ioos:station:DISL:KATA:1,2012-08-06T05:00:00Z,30.2583,-88.2131,4.048,2.96,1111122 
DISL,ioos:station:DISL:KATA:1,2012-08-06T05:30:00Z,30.2583,-88.2131,4.048,2.96,1111122 
DISL,ioos:station:DISL:KATA:1,2012-08-06T06:00:00Z,30.2583,-88.2131,4.048,2.96,1111122 
DISL,ioos:station:DISL:KATA:1,2012-08-06T06:30:00Z,30.2583,-88.2131,4.048,2.96,1111122 
DISL,ioos:station:DISL:KATA:1,2012-08-06T07:00:00Z,30.2583,-88.2131,4.048,2.96,1111122 
DISL,ioos:station:DISL:KATA:1,2012-08-06T07:30:00Z,30.2583,-88.2131,4.048,2.96,1111122 
DISL,ioos:station:DISL:KATA:1,2012-08-06T08:00:00Z,30.2583,-88.2131,4.048,2.96,1111122 
DISL,ioos:station:DISL:KATA:1,2012-08-06T08:30:00Z,30.2583,-88.2131,4.048,2.96,1111122 
DISL,ioos:station:DISL:KATA:1,2012-08-06T09:00:00Z,30.2583,-88.2131,4.048,2.96,1111122 
DISL,ioos:station:DISL:KATA:1,2012-08-06T09:30:00Z,30.2583,-88.2131,4.048,2.96,1111122 
DISL,ioos:station:DISL:KATA:1,2012-08-06T10:00:00Z,30.2583,-88.2131,4.048,2.96,1111122 
DISL,ioos:station:DISL:KATA:1,2012-08-06T10:30:00Z,30.2583,-88.2131,4.048,2.96,1111122 
DISL,ioos:station:DISL:KATA:1,2012-08-06T11:00:00Z,30.2583,-88.2131,4.048,2.96,1111122 
DISL,ioos:station:DISL:KATA:1,2012-08-06T11:30:00Z,30.2583,-88.2131,4.048,2.96,1111122 
DISL,ioos:station:DISL:KATA:1,2012-08-06T12:00:00Z,30.2583,-88.2131,4.048,2.96,1111122 
DISL,ioos:station:DISL:KATA:1,2012-08-06T12:30:00Z,30.2583,-88.2131,4.048,2.96,1111122 
DISL,ioos:station:DISL:KATA:1,2012-08-06T13:00:00Z,30.2583,-88.2131,4.048,2.96,1111122 
DISL,ioos:station:DISL:KATA:1,2012-08-06T13:30:00Z,30.2583,-88.2131,4.048,2.96,1111122 
DISL,ioos:station:DISL:KATA:1,2012-08-06T14:00:00Z,30.2583,-88.2131,4.048,2.96,1111122 
DISL,ioos:station:DISL:KATA:1,2012-08-06T14:30:00Z,30.2583,-88.2131,4.048,2.96,1111122 
DISL,ioos:station:DISL:KATA:1,2012-08-06T15:00:00Z,30.2583,-88.2131,4.048,2.96,1111122 